Time,TemperatureF,DewpointF,PressureIn,WindDirection,WindDirectionDegrees,WindSpeedMPH,WindSpeedGustMPH,Humidity,HourlyPrecipIn,Conditions,Clouds,dailyrainin,SoftwareType,DateUTC
2013-01-03 00:15:00,19.5,13.0,30.15,SSW,207,4.0,6.0,76,0.00,,,0.00,weatherlink.com 1.10,2013-01-03 05:15:00,
2013-01-03 00:30:00,19.6,13.0,30.15,SSE,166,4.0,7.0,76,0.00,,,0.00,weatherlink.com 1.10,2013-01-03 05:30:00,
2013-01-03 00:45:00,19.7,13.0,30.14,SSW,197,0.0,6.0,76,0.00,,,0.00,weatherlink.com 1.10,2013-01-03 05:45:00,
2013-01-03 01:00:00,19.8,13.0,30.14,East,97,2.0,6.0,76,0.00,,,0.00,weatherlink.com 1.10,2013-01-03 06:00:00,
2013-01-03 01:15:00,19.9,14.0,30.13,South,180,3.0,6.0,76,0.00,,,0.00,weatherlink.com 1.10,2013-01-03 06:15:00,
2013-01-03 01:30:00,20.0,13.0,30.13,SSE,167,2.0,5.0,75,0.00,,,0.00,weatherlink.com 1.10,2013-01-03 06:30:00,
2013-01-03 01:45:00,20.1,13.0,30.13,South,179,5.0,8.0,75,0.00,,,0.00,weatherlink.com 1.10,2013-01-03 06:45:00,
2013-01-03 02:00:00,20.1,13.0,30.13,SSW,194,0.0,5.0,75,0.00,,,0.00,weatherlink.com 1.10,2013-01-03 07:00:00,
2013-01-03 02:15:00,20.1,13.0,30.13,SSE,164,2.0,7.0,75,0.00,,,0.00,weatherlink.com 1.10,2013-01-03 07:15:00,
2013-01-03 02:30:00,20.2,13.0,30.13,SSE,165,5.0,6.0,75,0.00,,,0.00,weatherlink.com 1.10,2013-01-03 07:30:00,
2013-01-03 02:45:00,20.1,13.0,30.13,South,179,0.0,6.0,75,0.00,,,0.00,weatherlink.com 1.10,2013-01-03 07:45:00,
2013-01-03 03:01:00,20.0,14.0,30.12,SE,136,3.0,5.0,76,0.00,,,0.00,weatherlink.com 1.10,2013-01-03 08:01:00,
2013-01-03 03:16:00,20.0,14.0,30.12,SSE,164,2.0,6.0,76,0.00,,,0.00,weatherlink.com 1.10,2013-01-03 08:16:00,
2013-01-03 03:31:00,20.0,14.0,30.12,ESE,121,1.0,3.0,77,0.00,,,0.00,weatherlink.com 1.10,2013-01-03 08:31:00,
2013-01-03 03:46:00,20.0,15.0,30.12,SSE,162,0.0,3.0,79,0.00,,,0.00,weatherlink.com 1.10,2013-01-03 08:46:00,
2013-01-03 04:01:00,20.0,15.0,30.11,SE,138,0.0,4.0,79,0.00,,,0.00,weatherlink.com 1.10,2013-01-03 09:01:00,
2013-01-03 04:16:00,20.0,14.0,30.10,SSE,158,0.0,4.0,78,0.00,,,0.00,weatherlink.com 1.10,2013-01-03 09:16:00,
2013-01-03 04:31:00,20.1,14.0,30.10,SSW,196,0.0,4.0,78,0.00,,,0.00,weatherlink.com 1.10,2013-01-03 09:31:00,
2013-01-03 04:46:00,20.2,14.0,30.09,South,172,0.0,6.0,78,0.00,,,0.00,weatherlink.com 1.10,2013-01-03 09:46:00,
2013-01-03 05:01:00,20.3,15.0,30.09,SE,129,0.0,5.0,79,0.00,,,0.00,weatherlink.com 1.10,2013-01-03 10:01:00,
2013-01-03 05:16:00,20.4,15.0,30.09,SSE,147,0.0,4.0,80,0.00,,,0.00,weatherlink.com 1.10,2013-01-03 10:16:00,
2013-01-03 05:31:00,20.7,16.0,30.08,WNW,293,1.0,4.0,82,0.00,,,0.00,weatherlink.com 1.10,2013-01-03 10:31:00,
2013-01-03 05:46:00,21.0,17.0,30.08,East,86,0.0,0.0,83,0.00,,,0.00,weatherlink.com 1.10,2013-01-03 10:46:00,
2013-01-03 06:16:00,21.3,17.0,30.08,SSE,162,2.0,2.0,84,0.00,,,0.00,weatherlink.com 1.10,2013-01-03 11:16:00,
2013-01-03 06:31:00,21.5,17.0,30.08,SE,143,0.0,4.0,84,0.00,,,0.00,weatherlink.com 1.10,2013-01-03 11:31:00,
2013-01-03 06:46:00,21.9,18.0,30.08,SSE,162,2.0,3.0,84,0.00,,,0.00,weatherlink.com 1.10,2013-01-03 11:46:00,
2013-01-03 07:01:00,22.3,19.0,30.07,SSW,195,1.0,6.0,85,0.00,,,0.00,weatherlink.com 1.10,2013-01-03 12:01:00,
2013-01-03 07:16:00,23.0,19.0,30.07,South,181,0.0,5.0,86,0.00,,,0.00,weatherlink.com 1.10,2013-01-03 12:16:00,
2013-01-03 07:31:00,23.6,20.0,30.08,WSW,255,3.0,7.0,86,0.00,,,0.00,weatherlink.com 1.10,2013-01-03 12:31:00,
2013-01-03 07:46:00,24.1,21.0,30.08,WSW,249,0.0,4.0,86,0.00,,,0.00,weatherlink.com 1.10,2013-01-03 12:46:00,
2013-01-03 08:01:00,24.6,21.0,30.08,WSW,240,0.0,6.0,86,0.00,,,0.00,weatherlink.com 1.10,2013-01-03 13:01:00,
2013-01-03 08:16:00,24.8,21.0,30.08,SW,222,0.0,5.0,86,0.00,,,0.00,weatherlink.com 1.10,2013-01-03 13:16:00,
2013-01-03 08:31:00,25.0,21.0,30.09,WSW,238,2.0,5.0,86,0.00,,,0.00,weatherlink.com 1.10,2013-01-03 13:31:00,
2013-01-03 08:48:00,25.1,22.0,30.09,SW,232,0.0,6.0,86,0.00,,,0.00,weatherlink.com 1.10,2013-01-03 13:48:00,
2013-01-03 09:01:00,25.2,22.0,30.09,SE,133,0.0,5.0,86,0.00,,,0.00,weatherlink.com 1.10,2013-01-03 14:01:00,
2013-01-03 09:16:00,25.2,22.0,30.10,SW,224,0.0,3.0,86,0.00,,,0.00,weatherlink.com 1.10,2013-01-03 14:16:00,
2013-01-03 09:31:00,25.4,22.0,30.10,South,170,0.0,4.0,86,0.00,,,0.00,weatherlink.com 1.10,2013-01-03 14:31:00,
2013-01-03 09:46:00,25.5,22.0,30.10,SW,225,0.0,4.0,87,0.00,,,0.00,weatherlink.com 1.10,2013-01-03 14:46:00,
2013-01-03 10:02:00,25.8,23.0,30.11,WSW,245,0.0,0.0,87,0.00,,,0.00,weatherlink.com 1.10,2013-01-03 15:02:00,
2013-01-03 10:17:00,26.0,23.0,30.12,SSW,193,0.0,0.0,87,0.00,,,0.00,weatherlink.com 1.10,2013-01-03 15:17:00,
2013-01-03 10:32:00,26.3,23.0,30.12,SW,215,0.0,0.0,87,0.00,,,0.00,weatherlink.com 1.10,2013-01-03 15:32:00,
2013-01-03 10:47:00,26.9,24.0,30.12,WSW,249,0.0,4.0,87,0.00,,,0.00,weatherlink.com 1.10,2013-01-03 15:47:00,
2013-01-03 11:02:00,28.4,25.0,30.12,WNW,285,5.0,6.0,87,0.00,,,0.00,weatherlink.com 1.10,2013-01-03 16:02:00,
2013-01-03 11:17:00,29.0,25.0,30.12,WSW,243,8.0,10.0,86,0.00,,,0.00,weatherlink.com 1.10,2013-01-03 16:17:00,
2013-01-03 11:32:00,29.0,25.0,30.11,West,276,4.0,8.0,86,0.00,,,0.00,weatherlink.com 1.10,2013-01-03 16:32:00,
2013-01-03 11:47:00,29.1,25.0,30.12,WSW,257,2.0,9.0,86,0.00,,,0.00,weatherlink.com 1.10,2013-01-03 16:47:00,
2013-01-03 12:02:00,29.1,25.0,30.11,WNW,293,3.0,14.0,86,0.00,,,0.00,weatherlink.com 1.10,2013-01-03 17:02:00,
2013-01-03 12:17:00,29.2,25.0,30.11,West,266,4.0,9.0,85,0.00,,,0.00,weatherlink.com 1.10,2013-01-03 17:17:00,
2013-01-03 12:47:00,29.3,25.0,30.11,West,273,5.0,8.0,85,0.00,,,0.00,weatherlink.com 1.10,2013-01-03 17:47:00,
2013-01-03 13:02:00,29.1,25.0,30.11,WNW,299,2.0,13.0,84,0.00,,,0.00,weatherlink.com 1.10,2013-01-03 18:02:00,
2013-01-03 13:17:00,28.9,25.0,30.11,West,279,5.0,11.0,85,0.00,,,0.00,weatherlink.com 1.10,2013-01-03 18:17:00,
2013-01-03 13:32:00,28.8,25.0,30.11,NNW,335,3.0,11.0,85,0.00,,,0.00,weatherlink.com 1.10,2013-01-03 18:32:00,
2013-01-03 13:47:00,28.8,25.0,30.11,WNW,294,5.0,11.0,84,0.00,,,0.00,weatherlink.com 1.10,2013-01-03 18:47:00,
2013-01-03 14:02:00,29.0,25.0,30.11,WNW,297,6.0,10.0,84,0.00,,,0.00,weatherlink.com 1.10,2013-01-03 19:02:00,
2013-01-03 14:17:00,28.9,25.0,30.11,NW,318,4.0,12.0,85,0.00,,,0.00,weatherlink.com 1.10,2013-01-03 19:17:00,
2013-01-03 15:02:00,28.6,25.0,30.12,WNW,283,4.0,12.0,85,0.00,,,0.00,weatherlink.com 1.10,2013-01-03 20:02:00,
2013-01-03 15:17:00,28.6,25.0,30.13,West,270,6.0,9.0,85,0.00,,,0.00,weatherlink.com 1.10,2013-01-03 20:17:00,
2013-01-03 15:32:00,28.6,25.0,30.14,West,276,4.0,8.0,85,0.00,,,0.00,weatherlink.com 1.10,2013-01-03 20:32:00,
2013-01-03 15:47:00,28.6,25.0,30.14,WNW,297,4.0,10.0,85,0.00,,,0.00,weatherlink.com 1.10,2013-01-03 20:47:00,
2013-01-03 16:17:00,28.7,25.0,30.15,NNW,336,3.0,9.0,84,0.00,,,0.00,weatherlink.com 1.10,2013-01-03 21:17:00,
2013-01-03 16:32:00,28.7,25.0,30.16,WNW,295,0.0,9.0,84,0.00,,,0.00,weatherlink.com 1.10,2013-01-03 21:32:00,
2013-01-03 17:02:00,28.9,24.0,30.17,WNW,296,2.0,7.0,83,0.00,,,0.00,weatherlink.com 1.10,2013-01-03 22:02:00,
2013-01-03 17:17:00,29.0,25.0,30.17,WNW,290,3.0,6.0,83,0.00,,,0.00,weatherlink.com 1.10,2013-01-03 22:17:00,
2013-01-03 17:32:00,29.0,25.0,30.18,NW,307,0.0,6.0,83,0.00,,,0.00,weatherlink.com 1.10,2013-01-03 22:32:00,
2013-01-03 17:47:00,29.1,25.0,30.18,WNW,283,2.0,8.0,83,0.00,,,0.00,weatherlink.com 1.10,2013-01-03 22:47:00,
2013-01-03 18:02:00,29.2,25.0,30.19,WNW,283,0.0,6.0,83,0.00,,,0.00,weatherlink.com 1.10,2013-01-03 23:02:00,
2013-01-03 18:17:00,29.2,25.0,30.19,WNW,285,0.0,6.0,83,0.00,,,0.00,weatherlink.com 1.10,2013-01-03 23:17:00,
2013-01-03 18:32:00,29.3,24.0,30.20,West,273,4.0,6.0,82,0.00,,,0.00,weatherlink.com 1.10,2013-01-03 23:32:00,
2013-01-03 18:47:00,29.3,24.0,30.20,West,266,0.0,6.0,82,0.00,,,0.00,weatherlink.com 1.10,2013-01-03 23:47:00,
2013-01-03 19:03:00,29.3,24.0,30.20,WNW,293,1.0,5.0,82,0.00,,,0.00,weatherlink.com 1.10,2013-01-04 00:03:00,
2013-01-03 19:18:00,29.3,25.0,30.20,West,274,2.0,4.0,83,0.00,,,0.00,weatherlink.com 1.10,2013-01-04 00:18:00,
2013-01-03 19:33:00,29.5,25.0,30.20,West,280,3.0,5.0,82,0.00,,,0.00,weatherlink.com 1.10,2013-01-04 00:33:00,
2013-01-03 19:48:00,29.6,25.0,30.20,West,269,0.0,4.0,82,0.00,,,0.00,weatherlink.com 1.10,2013-01-04 00:48:00,
2013-01-03 20:03:00,29.7,25.0,30.20,West,271,4.0,4.0,83,0.00,,,0.00,weatherlink.com 1.10,2013-01-04 01:03:00,
2013-01-03 20:18:00,29.7,25.0,30.20,WNW,291,1.0,5.0,83,0.00,,,0.00,weatherlink.com 1.10,2013-01-04 01:18:00,
2013-01-03 20:33:00,29.7,25.0,30.20,West,281,0.0,4.0,83,0.00,,,0.00,weatherlink.com 1.10,2013-01-04 01:33:00,
2013-01-03 20:49:00,29.8,25.0,30.20,WSW,253,2.0,4.0,83,0.00,,,0.00,weatherlink.com 1.10,2013-01-04 01:49:00,
2013-01-03 21:03:00,29.8,25.0,30.20,WNW,296,3.0,6.0,83,0.00,,,0.00,weatherlink.com 1.10,2013-01-04 02:03:00,
2013-01-03 21:18:00,29.9,25.0,30.20,WNW,283,1.0,10.0,81,0.00,,,0.00,weatherlink.com 1.10,2013-01-04 02:18:00,
2013-01-03 21:33:00,29.7,25.0,30.20,WSW,257,3.0,12.0,81,0.00,,,0.00,weatherlink.com 1.10,2013-01-04 02:33:00,
2013-01-03 21:48:00,29.6,24.0,30.20,WNW,288,1.0,10.0,81,0.00,,,0.00,weatherlink.com 1.10,2013-01-04 02:48:00,
2013-01-03 22:03:00,29.4,25.0,30.20,WNW,295,2.0,7.0,82,0.00,,,0.00,weatherlink.com 1.10,2013-01-04 03:03:00,
2013-01-03 22:18:00,29.4,24.0,30.20,WNW,291,3.0,7.0,81,0.00,,,0.00,weatherlink.com 1.10,2013-01-04 03:18:00,
2013-01-03 22:33:00,29.3,24.0,30.19,NW,312,3.0,7.0,82,0.00,,,0.00,weatherlink.com 1.10,2013-01-04 03:33:00,
2013-01-03 22:48:00,29.4,24.0,30.19,WNW,301,3.0,9.0,81,0.00,,,0.00,weatherlink.com 1.10,2013-01-04 03:48:00,
2013-01-03 23:03:00,29.4,25.0,30.19,West,264,4.0,8.0,82,0.00,,,0.00,weatherlink.com 1.10,2013-01-04 04:03:00,
2013-01-03 23:18:00,29.5,25.0,30.19,WSW,250,4.0,8.0,82,0.00,,,0.00,weatherlink.com 1.10,2013-01-04 04:18:00,
2013-01-03 23:33:00,29.5,25.0,30.18,WNW,283,0.0,9.0,83,0.00,,,0.00,weatherlink.com 1.10,2013-01-04 04:33:00,
2013-01-03 23:48:00,29.6,25.0,30.18,SW,232,0.0,9.0,82,0.00,,,0.00,weatherlink.com 1.10,2013-01-04 04:48:00,